{"data":{"norad_id":68705,"epoch":"2026-05-25T04:00:03.998880Z","epoch_age_seconds":63743,"freshness":"FRESH","line1":"1 68705U 26081G   26145.16671295 -.02565329  00000+0 -77628-1 0  9992","line2":"2 68705  53.1597  39.2813 0000577  55.1405  30.2876 15.37693730  5907","mean_motion":15.3769373,"eccentricity":5.77e-5,"inclination_deg":53.1597,"raan_deg":39.2813,"arg_perigee_deg":55.1405,"mean_anomaly_deg":30.2876,"bstar":-0.077628,"rev_number":590,"period_min":93.646736791988,"perigee_km":452.53690654949,"apogee_km":453.32521180352,"semimajor_km":6831.0680591765,"source":"CELESTRAK","updated_at":"2026-05-25T13:38:21.998637Z"}}